Погода в Танджунг-Беноа

Индонезия     8°46′16″S   115°13′20″E
темп.,
°C
ветер,
м/с
пор.,
м/с
влажн.,
%
обл.,
%
осадки,
мм/ч
давл.,
гПа
погр.,
м
2 марта, вт
вт223:00+27ссв338150 0.1 1011121
02:00+27с227629 0.3 101094
05:00+26ссз227673 0.0 100895
08:00+26с227362 0.0 101099
11:00+28вюв22670 0.0 1010200
14:00+28ююв447116 0.0 1009345
17:00+28ююз337493 0.6 1008229
20:00+28юз347760 0.8 1010285
3 марта, ср
ср323:00+27ссз348266 1.4 1011201
02:00+26ссз227953 1.4 1010111
05:00+26с227618 0.0 1009103
08:00+26с227419 0.0 1010102
11:00+28юз226910 0.0 1011186
14:00+28ююз337010 0.0 1008341
17:00+29ю22690 0.1 1008663
20:00+28с017220 2.1 101081
4 марта, чт
чт423:00+27с238094 0.1 1012102
02:00+26с227977 0.1 1010101
05:00+26сз2278100 0.0 1010126
08:00+26сз227498 0.0 1011117
11:00+27зюз3373100 0.0 1011290
14:00+28юз667599 0.0 1009467
17:00+29зюз577496 0.4 1008755
20:00+28з577798 1.1 1010576
5 марта, пт
пт523:00+27з6778100 2.6 1011566
02:00+27зсз5779100 3.0 1010728
05:00+27з6879100 1.1 1009853
08:00+27зюз5678100 6.6 1011628
11:00+27з457778 2.2 1011471
14:00+28зюз567588 3.3 1009818
17:00+28зюз5677100 1.8 1008841
20:00+27зюз3479100 4.1 1010667
6 марта, сб
сб623:00+27зсз3480100 0.0 1011471
02:00+25ссз3387100 0.0 1009178
05:00+25ссз2283100 0.0 1008111
08:00+26ссз2280100 0.0 1010120
11:00+27юз1173100 0.0 1010168
14:00+27ю327382 0.0 1008398
17:00+28ю33714 0.0 1008534
20:00+28ююз227717 0.1 1010350